NOAA 11 [-]

Last updated on Fri Dec 29 2023 00:02:19 GMT+0000 (Coordinated Universal Time)

1 19531U 88089A 23361.88385908 .00000142 00000+0 93723-4 0 9990 2 19531 98.4941 327.2874 0011479 16.1678 343.9861 14.15467376819815
UTC large
Height (km)
Speed (km/s)
/
Latitude / Longitude
Inclination (degrees)
Orbital Period (minutes)
Azimuth
Elevation
Range (km)
Doppler Factor

Next 0 passes for location: London (51.5072 / 0.1276)

Sorry there are no passes over London.